STARLINK-3419, 51463

Orbit data source: Space-Track

STARLINK-3419, 51463 is a payload satellite owned by SpaceX/Seattle (US) in LEO that was launched on Thu, 03 Feb 2022 UTC via an FALCON 9 launch vehicle from the Air Force Eastern Test Range (AFETR). Payload-class satellites include a variety of spacecraft equipped with specific instruments for various scientific and technological missions. These include communications satellites like Starlink; space stations such as the ISS; scientific satellites like the Hubble; Earth observation satellites from companies like Planet Labs, Umbra, and HawkEye 360; GPS; miniature CubeSats for education and research; and military/defense satellites.

Loading next visibility...
Identifier
51463, 2022-010H
Orbit
LEO
Country
Flag of USUS
Related business
Manufacturer
SpaceX/Seattle
Mission
Operational Commercial Communications
Bus & Motor
STARLINK, Unknown motor
Mass
297 kg wet, ~275 kg dry
Launch date (UTC)
2022-02-03 (4 years ago)
Launch vehicle
FALCON 9
Launch site
Air Force Eastern Test Range (AFETR)
Object type
Payload
Rocket body
Debris
Shape & HBR
Box + 1 Pan, 10.1 m
Radar Cross Section
13.562 m², Large (>1 m²)

Expand to show TLE details & history
Last TLE update: 2 days ago

TLE from 2 days ago
0 STARLINK-3419
1 51463U 22010H   26171.41668980  .00110091  00000-0  48114-2 0  9995
2 51463  53.1601 177.5228 0002214  91.3911  98.7299 15.21228774  5820
Epoch: 2026-06-20T10:00Z
TLE epoch observation values (Epoch: 2026-06-20T10:00:01.998Z)
Latitude
-8.23219°
Longitude
-54.92913°
Altitude
504.696 km
Speed
7.612 km/s
True Right ascension
00h 14m 50s
True Declination
-8° 10' 55"
Sunlit
Object was in daylight at epoch
Visualization orbit readout
Latitude
Unknown
Longitude
Unknown
Altitude
Unknown
Speed
Unknown
Apparent Right ascension
Unknown
Apparent Declination
Unknown
Sunlit
N/A
Visualization observer readout
Local Sidereal Time
23:19:33
Azimuth
Unknown
Elevation
Unknown
Doppler factor
Unknown
Orbital elements
Apogee altitude
503.912 km
Perigee altitude
500.865 km
Semi-major axis
6,880.526 km
Eccentricity
0.00022
Inclination
53.1601°
RAAN
177.5228°
Arg. of periapsis
91.3911°
True anomaly
98.75498°
Mean anomaly
98.7299°
Eccentric anomaly
98.74244°
Mean motion
3.80286 °/min
Orbital period
94.67 mins
BSTAR
0.0048114
Loading maneuver chart data...
Computing Atmospheric mass density...
Loading historical data...
Loading historical data...
Loading historical data...
Loading historical data...
Loading historical data...
Loading historical data...
Loading historical data...

Documentation

Showing up to 5 results
|